KCEF

Westover Air Reserve Base

Airport
ICAO code
KCEF
Summary
ICAO Region
NAM
ICAO Territory
Location

Springfield, Massachusetts,

Coordinates
42° 11' 52" N , 72° 32' 18" W
KCC
Airport WX
Cumulonimbus
Metar
KCEF 191055Z AUTO 00000KT 10SM OVC043 07/04 A3018 RMK AO2 SLP227 T00670037

Description

Westover Air Reserve Base is an Air Force Reserve Command (AFRC) installation located between the Massachusetts communities of Chicopee and Ludlow, 10 km northeast of the central business district of the city of Springfield, Massachusetts.

Climatology

Humid “subtropical”/Continental climate (Köppen climate classification Cfa/Dfa) - characterized by hot, humid summers and cool/cold winters. Significant amounts of precipitation occur in all seasons in most areas. Winter rainfall (and snowfall) is associated with large storms that the westerlies steer from west to east. Most summer rainfall occurs during thunderstorms.

Airport map

Aerial View

SKYbrary Partners:

Safety knowledge contributed by: